sat.trackr.live / text

‹ back to catalog

FLOCK 4G-1

NORAD 62666 · 2025-009BK

PAYLOAD ACTIVE UNKNOWN

§ Identity

Operator
Country
US
Launch date
2025-01-14
Launch site
AFWTR
Launch vehicle
Mass (kg)
RCS (m²)

Purposes: earth_obs

External: N2YO · Heavens-Above · Gunter

§ Orbital elements

Epoch: 2026-05-25T03:58:23.957184Z

Period
94.17 min
Inclination
97.4023°
Eccentricity
0.0005192
Mean motion
15.29103891 rev/d
Perigee alt
474.9 km
Apogee alt
482.0 km
Semi-major
6,856.6 km
B*
4.0103e-4
RAAN
227.2700°
Arg perigee
60.5724°
Mean anomaly
299.6034°
Rev number
7,539

§ Raw data

FLOCK 4G-11 62666U 25009BK  26145.16555506  .00011264  00000+0  40103-3 0  99972 62666  97.4023 227.2700 0005192  60.5724 299.6034 15.29103891 75390

JSON: /api/v1/satellites/62666 · /tle

For live sub-satellite position, see the globe view (requires WebGL).

§ Visibility from observer

Set your observer location to see the next 7 days of passes ≥ 10°. The values pass through the URL so the page stays shareable.

No JS? Fill the form by hand. The geolocation button needs JavaScript.